Location: Kirtland Hills
(41.6239°N, 81.3071°W)
Time: 08:00:00
(UTC+00:00)

YAOGAN 1 - Pass Details

Date: 29 October 2020
Orbit: 618 x 620 km, 97.9° (Epoch: 28 November)

Event Time Altitude Azimuth Distance (km) Brightness Sun altitude
Rises 23:41:34 0° 152° (SSE) 2,884 5.8 -15.2°
Reaches altitude 10° 23:43:48 10° 147° (SSE) 1,982 4.9 -15.6°
Maximum altitude 23:47:57 49° 73° (ENE) 804 2.7 -16.4°
Drops below altitude 10° 23:52:08 10° 358° (N) 1,996 5.1 -17.2°
Sets 23:54:23 0° 353° (N) 2,906 6.1 -17.6°
